Total_Precipitation_Accumulation
0.84 0.76 0.69 0.60 0.58 0.57 0.63 0.81 1.25 1.73 2.26 2.79 2.92 3.00 3.27 3.48 3.37 3.11 2.70 2.48 2.48 2.42 2.44 2.34 2.15 2.09 2.00 1.87 1.71 1.71 1.70 1.73 1.80 1.88 1.91 1.84 1.88 1.85 1.80 1.78 1.66 1.62 1.56 1.50
0.85 0.68 0.74 0.75 0.79 0.80 0.77 0.86 1.20 1.71 2.47 2.77 2.92 3.16 3.27 3.28 3.38 3.32 2.90 2.62 2.54 2.44 2.34 2.41 2.25 2.11 1.97 1.91 1.85 1.83 1.81 1.77 1.75 1.76 1.70 1.68 1.70 1.72 1.65 1.61 1.62 1.58 1.48 1.39
1.29 0.79 1.04 1.46 1.28 1.12 1.12 1.18 1.42 1.88 2.30 2.42 2.60 2.83 3.12 3.33 3.39 3.48 3.17 2.80 2.60 2.54 2.42 2.39 2.45 2.45 2.31 2.10 1.97 1.77 1.73 1.72 1.64 1.57 1.51 1.54 1.53 1.55 1.59 1.64 1.62 1.52 1.41 1.38
1.40 1.52 2.09 1.75 1.19 1.09 1.27 1.39 1.40 1.64 1.75 2.01 2.29 2.49 2.83 3.09 3.41 3.56 3.32 3.01 2.76 2.60 2.49 2.45 2.46 2.46 2.29 2.10 1.88 1.72 1.70 1.63 1.51 1.42 1.39 1.50 1.45 1.48 1.56 1.56 1.52 1.51 1.47 1.51
1.71 2.09 2.18 1.79 1.21 1.10 1.48 1.84 1.45 1.48 1.54 1.63 1.77 2.08 2.69 2.70 2.83 3.16 3.22 3.06 2.88 2.65 2.52 2.48 2.33 2.25 2.22 1.95 1.83 1.78 1.65 1.55 1.39 1.31 1.36 1.39 1.33 1.35 1.44 1.44 1.41 1.43 1.45 1.51
1.83 2.37 2.66 2.16 1.14 0.85 1.33 2.39 1.71 1.50 1.61 1.65 1.89 2.34 2.45 2.18 2.22 2.44 2.64 2.72 2.68 2.53 2.40 2.38 2.23 2.10 2.13 2.02 1.84 1.79 1.66 1.57 1.44 1.41 1.41 1.42 1.43 1.41 1.37 1.35 1.32 1.32 1.37 1.49
1.95 2.36 2.42 1.41 0.92 1.09 2.24 2.69 1.83 1.51 1.65 1.90 2.27 2.26 1.88 1.67 1.80 1.98 2.08 2.23 2.31 2.34 2.33 2.22 2.04 1.99 2.15 2.27 2.10 1.81 1.68 1.64 1.65 1.65 1.58 1.54 1.56 1.52 1.46 1.35 1.35 1.38 1.39 1.45
2.06 2.59 2.61 1.24 1.04 1.73 2.10 1.64 1.49 1.50 1.55 1.61 1.65 1.52 1.42 1.46 1.62 1.66 1.76 1.90 2.06 2.26 2.23 2.17 2.05 2.00 2.00 2.06 2.05 1.89 1.79 1.78 1.76 1.68 1.60 1.57 1.65 1.57 1.54 1.58 1.51 1.50 1.44 1.44
2.08 2.51 2.02 1.28 1.18 1.25 1.26 1.40 1.41 1.50 1.48 1.39 1.38 1.40 1.33 1.41 1.58 1.68 1.71 1.82 1.90 2.02 2.10 2.07 1.95 1.99 2.01 1.95 1.79 1.75 1.89 1.86 1.82 1.73 1.68 1.69 1.70 1.58 1.48 1.59 1.53 1.42 1.33 1.33
1.60 1.72 1.58 1.41 1.20 1.14 1.21 1.25 1.30 1.40 1.43 1.36 1.38 1.31 1.27 1.40 1.54 1.64 1.62 1.67 1.77 1.89 2.00 1.99 1.83 1.81 1.86 1.79 1.75 1.79 1.81 1.79 1.81 1.79 1.69 1.59 1.54 1.46 1.41 1.42 1.47 1.46 1.36 1.30
1.69 1.68 1.59 1.58 1.43 1.31 1.40 1.40 1.32 1.40 1.49 1.43 1.43 1.41 1.30 1.39 1.42 1.46 1.51 1.56 1.64 1.83 1.94 1.88 1.73 1.62 1.60 1.74 1.82 1.89 1.78 1.63 1.61 1.58 1.52 1.49 1.41 1.31 1.27 1.19 1.19 1.26 1.21 1.10
1.85 1.70 1.67 1.62 1.46 1.37 1.60 1.72 1.58 1.50 1.47 1.42 1.40 1.43 1.28 1.24 1.22 1.23 1.30 1.41 1.57 1.69 1.75 1.71 1.64 1.60 1.53 1.64 1.75 1.81 1.69 1.59 1.55 1.44 1.38 1.26 1.23 1.23 1.24 1.13 1.04 1.01 1.04 0.96
1.36 1.29 1.37 1.34 1.30 1.39 1.64 1.69 1.59 1.39 1.27 1.28 1.25 1.28 1.28 1.20 1.16 1.13 1.16 1.23 1.34 1.38 1.48 1.51 1.47 1.50 1.47 1.49 1.58 1.65 1.65 1.61 1.50 1.43 1.38 1.30 1.23 1.21 1.24 1.16 1.07 1.02 0.99 0.93
1.25 1.22 1.41 1.38 1.35 1.29 1.42 1.51 1.45 1.24 1.14 1.20 1.19 1.15 1.19 1.13 1.09 1.12 1.20 1.16 1.14 1.17 1.24 1.28 1.30 1.33 1.37 1.38 1.43 1.44 1.42 1.45 1.45 1.37 1.30 1.31 1.33 1.28 1.24 1.29 1.26 1.12 0.98 0.91
1.28 1.18 1.26 1.21 1.12 1.06 1.09 1.23 1.35 1.25 1.13 1.11 1.10 1.09 1.12 1.13 1.11 1.06 1.13 1.10 1.10 1.17 1.22 1.16 1.19 1.23 1.24 1.22 1.25 1.32 1.34 1.33 1.30 1.31 1.26 1.23 1.27 1.29 1.27 1.30 1.35 1.29 1.14 1.02
1.14 0.98 0.97 1.00 0.97 0.95 0.98 1.04 1.16 1.12 1.00 0.94 0.89 0.92 0.99 1.05 1.08 1.03 1.03 1.06 1.18 1.25 1.26 1.17 1.13 1.07 1.07 1.13 1.11 1.11 1.12 1.17 1.18 1.19 1.22 1.21 1.20 1.23 1.27 1.32 1.36 1.33 1.22 1.14
1.19 1.12 1.07 1.05 0.98 0.94 0.92 0.97 1.01 0.95 0.92 0.89 0.88 0.85 0.88 0.98 1.11 1.13 1.07 1.07 1.17 1.24 1.18 1.09 1.01 0.88 0.87 0.94 0.97 0.99 0.95 0.91 0.91 0.89 0.92 0.94 0.98 1.04 1.10 1.21 1.25 1.20 1.10 1.09
1.01 0.98 0.98 1.04 0.99 0.91 0.85 0.85 0.89 0.84 0.84 0.78 0.73 0.77 0.86 0.99 1.07 1.07 1.03 1.03 1.07 1.14 1.13 1.05 0.94 0.85 0.80 0.82 0.87 0.90 0.84 0.75 0.68 0.67 0.72 0.79 0.82 0.83 0.91 0.95 1.01 1.01 0.96 0.96
0.83 0.75 0.72 0.80 0.85 0.83 0.82 0.82 0.83 0.77 0.73 0.71 0.74 0.77 0.80 0.92 0.92 0.86 0.90 1.01 1.10 1.16 1.11 0.97 0.92 0.87 0.88 0.92 0.89 0.82 0.74 0.69 0.63 0.61 0.65 0.76 0.81 0.83 0.88 0.89 0.91 0.93 0.92 0.90
0.76 0.66 0.65 0.69 0.74 0.78 0.83 0.84 0.81 0.79 0.74 0.73 0.79 0.79 0.80 0.85 0.88 0.84 0.91 1.00 1.01 1.01 1.00 0.94 0.80 0.77 0.82 0.88 0.85 0.74 0.69 0.67 0.66 0.63 0.66 0.75 0.78 0.76 0.76 0.76 0.80 0.87 0.84 0.81
0.75 0.65 0.66 0.68 0.73 0.77 0.80 0.85 0.79 0.79 0.84 0.87 0.93 0.92 0.90 0.90 0.90 0.92 1.00 1.03 0.95 0.86 0.84 0.85 0.78 0.79 0.80 0.82 0.74 0.64 0.63 0.67 0.70 0.67 0.68 0.73 0.76 0.75 0.76 0.75 0.79 0.87 0.84 0.79
0.65 0.67 0.66 0.64 0.72 0.81 0.82 0.86 0.83 0.82 0.90 0.93 0.95 0.93 0.89 0.93 0.92 0.92 0.94 1.03 0.95 0.87 0.76 0.75 0.78 0.80 0.82 0.83 0.71 0.64 0.62 0.68 0.73 0.77 0.80 0.78 0.79 0.81 0.81 0.79 0.81 0.84 0.84 0.86
0.66 0.68 0.72 0.75 0.77 0.81 0.83 0.87 0.90 0.87 0.90 0.91 0.87 0.91 0.88 0.88 0.90 0.90 0.92 0.89 0.85 0.85 0.77 0.72 0.75 0.76 0.74 0.73 0.72 0.70 0.66 0.66 0.74 0.83 0.87 0.82 0.77 0.80 0.82 0.80 0.81 0.83 0.85 0.85
0.71 0.75 0.79 0.80 0.79 0.83 0.93 0.96 0.90 0.83 0.77 0.77 0.79 0.83 0.83 0.82 0.79 0.73 0.76 0.79 0.81 0.83 0.75 0.72 0.70 0.64 0.63 0.61 0.69 0.75 0.78 0.76 0.75 0.80 0.87 0.88 0.84 0.78 0.79 0.83 0.85 0.88 0.90 0.83
0.78 0.81 0.86 0.86 0.93 0.98 0.98 0.92 0.81 0.73 0.71 0.74 0.73 0.75 0.77 0.78 0.76 0.68 0.67 0.69 0.72 0.71 0.65 0.66 0.65 0.64 0.61 0.58 0.62 0.69 0.79 0.84 0.80 0.80 0.84 0.89 0.89 0.84 0.81 0.86 0.90 0.89 0.88 0.85
0.95 0.89 0.87 0.87 0.91 0.96 0.93 0.89 0.85 0.81 0.77 0.79 0.81 0.79 0.79 0.79 0.74 0.71 0.67 0.66 0.67 0.66 0.61 0.63 0.64 0.63 0.61 0.60 0.62 0.67 0.74 0.80 0.78 0.78 0.82 0.86 0.88 0.90 0.89 0.89 0.92 0.91 0.86 0.84
1.02 0.99 0.94 0.87 0.85 0.88 0.92 0.98 0.98 0.90 0.80 0.75 0.75 0.75 0.79 0.80 0.78 0.74 0.68 0.68 0.68 0.65 0.60 0.59 0.57 0.57 0.56 0.59 0.62 0.66 0.72 0.73 0.73 0.80 0.83 0.84 0.90 0.95 0.98 0.97 1.00 1.02 0.98 0.91